Flag for U.S.A. Weather past 2 weeks in New City, New York, U.S.A.

Now
56 °F

Clear.


Feels Like: 56 °F
Forecast: 48 / 83 °F
Wind: No wind

Location: Westchester County Airport

Current Time: May 3, 2015 at 11:15:34 PM

Latest Report: May 3, 2015 at 9:56 PM


Visibility: 10 mi

Pressure: 30.13 "Hg

Humidity: 65%

Dew point: 44 °F

Location of New CityLocation

Historic Weather in New City — Graph

°F

New City temperature yesterday

Maximum temperature yesterday: 65 °F (at 1:56 PM)
Minimum temperature yesterday: 43 °F (at 4:56 AM)
Average temperature yesterday: 53 °F

Past Weeks' High & Low Weather Summary

 TemperatureHumidityPressure
High77 °F (May 3, 2:56 PM)100% (Apr 20, 6:56 PM)30.25 "Hg (Apr 20, 6:56 PM)
Low34 °F (Apr 25, 4:56 AM)21% (Apr 29, 5:56 PM)29.54 "Hg (Apr 22, 2:56 PM)
Average51 °F55%29.81 "Hg
* Reported Apr 18 9:56 PM — May 3 9:56 PM, New City, Weather by CustomWeather, © 2015

Note: Actual official high and low records may vary slightly from our data, if they occured in-between our weather recording intervals... More about our weather records

Advertising

New City weather history for previous 24 hours

 ConditionsComfort  
Time TempWeatherWind HumidityBarometerVisibility
9:56 PM
Sun, May 3
56 °FClear.No wind65%30.13 "Hg10 mi
8:56 PM57 °FPassing clouds.5 mph60%30.11 "Hg10 mi
7:56 PM61 °FScattered clouds.5 mph52%30.09 "Hg10 mi
6:56 PM66 °FScattered clouds.7 mph42%30.08 "Hg10 mi
5:56 PM71 °FScattered clouds.7 mph31%30.06 "Hg10 mi
4:56 PM73 °FScattered clouds.14 mph30%30.04 "Hg10 mi
3:56 PM74 °FScattered clouds.9 mph26%30.03 "Hg10 mi
2:56 PM77 °FPassing clouds.8 mph24%30.04 "Hg10 mi
1:56 PM76 °FPassing clouds.15 mph23%30.06 "Hg10 mi
12:56 PM74 °FPassing clouds.9 mph26%30.06 "Hg10 mi
11:56 AM72 °FPassing clouds.5 mph31%30.07 "Hg10 mi
10:56 AM69 °FSunny.3 mph35%30.08 "Hg10 mi
9:56 AM64 °FSunny.5 mph45%30.07 "Hg10 mi
8:56 AM57 °FSunny.No wind55%30.08 "Hg10 mi
7:56 AM52 °FSunny.5 mph59%30.08 "Hg10 mi
6:56 AM48 °FSunny.No wind71%30.06 "Hg10 mi
5:56 AM43 °FClear.3 mph82%30.04 "Hg10 mi
4:56 AM43 °FClear.No wind86%30.04 "Hg10 mi
3:56 AM43 °FClear.No wind82%30.04 "Hg10 mi
2:56 AM44 °FClear.No wind76%30.03 "Hg10 mi
1:56 AM46 °FPassing clouds.No wind77%30.03 "Hg10 mi
12:56 AM46 °FPassing clouds.No wind77%30.04 "Hg10 mi
11:56 PM
Sat, May 2
47 °FPassing clouds.No wind71%30.03 "Hg10 mi
Weather by CustomWeather, © 2015

See weather overviewHow to use our weather pages